| time (UTC) | temp F | wind direction | speed knots | gust knots | rain 1hr in | rain 24hr in | rain mn in | humidity % | barometer mb |
| 20260503201455 | 68 | 248 | 10.4 | 15.6 | 0.00 | 0.00 | 0.00 | 48 | 1004.4 |
| 20260503200956 | 68 | 269 | 10.4 | 14.8 | 0.00 | 0.00 | 0.00 | 47 | 1004.4 |
| 20260503200456 | 67 | 256 | 13.9 | 14.8 | 0.00 | 0.00 | 0.00 | 53 | 1004.4 |
| 20260503195955 | 66 | 252 | 11.3 | 17.4 | 0.00 | 0.00 | 0.00 | 54 | 1004.4 |
| 20260503195455 | 67 | 251 | 12.2 | 17.4 | 0.00 | 0.00 | 0.00 | 50 | 1004.4 |
| 20260503194955 | 68 | 249 | 8.7 | 14.8 | 0.00 | 0.00 | 0.00 | 48 | 1004.4 |
| 20260503194456 | 67 | 255 | 10.4 | 13.9 | 0.00 | 0.00 | 0.00 | 52 | 1004.4 |
| 20260503193955 | 68 | 261 | 10.4 | 13.9 | 0.00 | 0.00 | 0.00 | 54 | 1004.4 |
| 20260503193455 | 68 | 243 | 8.7 | 15.6 | 0.00 | 0.00 | 0.00 | 51 | 1004.4 |
| 20260503192955 | 68 | 280 | 12.2 | 14.8 | 0.00 | 0.00 | 0.00 | 55 | 1004.7 |
| 20260503192455 | 67 | 274 | 7.8 | 14.8 | 0.00 | 0.00 | 0.00 | 52 | 1004.7 |
| 20260503191955 | 67 | 261 | 9.6 | 13.9 | 0.00 | 0.00 | 0.00 | 55 | 1004.7 |
| 20260503191455 | 67 | 264 | 11.3 | 18.2 | 0.00 | 0.00 | 0.00 | 54 | 1004.7 |
| 20260503190956 | 67 | 260 | 9.6 | 14.8 | 0.00 | 0.00 | 0.00 | 57 | 1004.7 |
| 20260503190455 | 64 | 226 | 11.3 | 14.8 | 0.00 | 0.00 | 0.00 | 57 | 1004.7 |
| 20260503185956 | 65 | 212 | 8.7 | 15.6 | 0.00 | 0.00 | 0.00 | 57 | 1004.7 |
| 20260503185455 | 66 | 251 | 12.2 | 15.6 | 0.00 | 0.00 | 0.00 | 56 | 1004.7 |
| 20260503184955 | 66 | 250 | 10.4 | 13.9 | 0.00 | 0.00 | 0.00 | 55 | 1005.1 |
| 20260503184457 | 66 | 217 | 11.3 | 15.6 | 0.00 | 0.00 | 0.00 | 51 | 1005.1 |
| 20260503183955 | 66 | 223 | 13.0 | 15.6 | 0.00 | 0.00 | 0.00 | 55 | 1005.1 |
| 20260503183455 | 66 | 210 | 10.4 | 13.9 | 0.00 | 0.00 | 0.00 | 55 | 1005.1 |
| 20260503182956 | 66 | 211 | 9.6 | 13.9 | 0.00 | 0.00 | 0.00 | 52 | 1005.1 |
| 20260503182455 | 65 | 233 | 13.9 | 15.6 | 0.00 | 0.00 | 0.00 | 54 | 1005.1 |
| 20260503181955 | 66 | 243 | 10.4 | 16.5 | 0.00 | 0.00 | 0.00 | 54 | 1005.1 |
| 20260503181504 | 66 | 249 | 12.2 | 13.0 | 0.00 | 0.00 | 0.00 | 54 | 1005.4 |
| 20260503180955 | 65 | 223 | 9.6 | 13.9 | 0.00 | 0.00 | 0.00 | 56 | 1005.4 |
| 20260503180455 | 65 | 241 | 12.2 | 14.8 | 0.00 | 0.00 | 0.00 | 55 | 1005.4 |
| 20260503175955 | 65 | 220 | 10.4 | 14.8 | 0.00 | 0.00 | 0.00 | 58 | 1005.4 |
| 20260503175456 | 64 | 223 | 8.7 | 13.0 | 0.00 | 0.00 | 0.00 | 54 | 1005.4 |
| 20260503174955 | 65 | 221 | 9.6 | 13.0 | 0.00 | 0.00 | 0.00 | 54 | 1005.4 |
| 20260503174456 | 65 | 240 | 8.7 | 13.0 | 0.00 | 0.00 | 0.00 | 60 | 1005.4 |
| 20260503173956 | 65 | 243 | 11.3 | 14.8 | 0.00 | 0.00 | 0.00 | 56 | 1005.8 |
| 20260503173456 | 64 | 223 | 9.6 | 13.0 | 0.00 | 0.00 | 0.00 | 54 | 1005.8 |
| 20260503172955 | 64 | 260 | 10.4 | 13.0 | 0.00 | 0.00 | 0.00 | 54 | 1005.8 |
| 20260503172456 | 64 | 211 | 12.2 | 13.9 | 0.00 | 0.00 | 0.00 | 55 | 1005.8 |
| 20260503171955 | 64 | 236 | 9.6 | 13.9 | 0.00 | 0.00 | 0.00 | 54 | 1005.8 |
| 20260503171456 | 64 | 262 | 7.8 | 15.6 | 0.00 | 0.00 | 0.00 | 56 | 1005.8 |
| 20260503170956 | 63 | 237 | 7.8 | 13.0 | 0.00 | 0.00 | 0.00 | 59 | 1005.8 |
| 20260503170456 | 64 | 250 | 9.6 | 13.0 | 0.00 | 0.00 | 0.00 | 56 | 1005.8 |
| 20260503150955 | 58 | 206 | 13.0 | 15.6 | 0.00 | 0.00 | 0.00 | 65 | 1006.8 |
| 20260503150455 | 58 | 228 | 13.0 | 14.8 | 0.00 | 0.00 | 0.00 | 62 | 1006.8 |
| 20260503130955 | 52 | 187 | 10.4 | 12.2 | 0.00 | 0.00 | 0.00 | 74 | 1006.8 |
| 20260503130455 | 52 | 200 | 10.4 | 13.0 | 0.00 | 0.00 | 0.00 | 73 | 1006.8 |
| 20260503110455 | 46 | 195 | 7.8 | 8.7 | 0.00 | 0.00 | 0.00 | 79 | 1007.8 |
| 20260503090457 | 47 | 154 | 3.5 | 3.5 | 0.00 | 0.00 | 0.00 | 82 | 1008.8 |
| 20260503081455 | 48 | 174 | 6.1 | 7.0 | 0.00 | 0.00 | 0.00 | 85 | 1009.1 |
| 20260503080956 | 48 | 175 | 6.1 | 7.0 | 0.00 | 0.00 | 0.00 | 86 | 1009.1 |
| 20260503080455 | 49 | 184 | 3.5 | 5.2 | 0.00 | 0.00 | 0.00 | 84 | 1009.1 |
| 20260503072455 | 50 | 221 | 6.1 | 7.8 | 0.00 | 0.00 | 0.00 | 77 | 1009.5 |
| 20260503071955 | 51 | 222 | 7.0 | 11.3 | 0.00 | 0.00 | 0.00 | 75 | 1009.5 |
| 20260503071455 | 50 | 239 | 9.6 | 11.3 | 0.00 | 0.00 | 0.00 | 74 | 1009.8 |
| 20260503070955 | 50 | 227 | 7.8 | 10.4 | 0.00 | 0.00 | 0.00 | 75 | 1009.8 |
| 20260503070455 | 51 | 240 | 9.6 | 13.0 | 0.00 | 0.00 | 0.00 | 74 | 1010.2 |
| 20260503054956 | 48 | 188 | 3.5 | 6.1 | 0.00 | 0.00 | 0.00 | 76 | 1010.2 |
| 20260503054455 | 48 | 191 | 3.5 | 6.1 | 0.00 | 0.00 | 0.00 | 76 | 1010.2 |
| 20260503053955 | 48 | 198 | 5.2 | 7.8 | 0.00 | 0.00 | 0.00 | 72 | 1010.2 |
| 20260503053455 | 48 | 207 | 5.2 | 7.8 | 0.00 | 0.00 | 0.00 | 73 | 1010.5 |
| 20260503052955 | 47 | 193 | 5.2 | 7.0 | 0.00 | 0.00 | 0.00 | 77 | 1010.5 |
| 20260503052455 | 47 | 180 | 4.3 | 6.1 | 0.00 | 0.00 | 0.00 | 74 | 1010.5 |
| 20260503051955 | 47 | 175 | 5.2 | 6.1 | 0.00 | 0.00 | 0.00 | 76 | 1010.5 |
| 20260503051455 | 47 | 184 | 5.2 | 7.0 | 0.00 | 0.00 | 0.00 | 79 | 1010.5 |
| 20260503050956 | 46 | 178 | 5.2 | 6.1 | 0.00 | 0.00 | 0.00 | 78 | 1010.5 |
| 20260503050455 | 46 | 184 | 3.5 | 4.3 | 0.00 | 0.00 | 0.00 | 76 | 1010.5 |
| 20260503045955 | 46 | 217 | 3.5 | 5.2 | 0.00 | 0.00 | 0.00 | 75 | 1010.8 |
| 20260503045456 | 46 | 204 | 3.5 | 4.3 | 0.00 | 0.00 | 0.00 | 77 | 1010.8 |
| 20260503044955 | 46 | 167 | 3.5 | 5.2 | 0.00 | 0.00 | 0.00 | 79 | 1010.8 |
| 20260503044456 | 46 | 189 | 4.3 | 5.2 | 0.00 | 0.00 | 0.00 | 80 | 1010.8 |
| 20260503043955 | 46 | 181 | 3.5 | 5.2 | 0.00 | 0.00 | 0.00 | 79 | 1010.8 |
| 20260503043455 | 47 | 186 | 4.3 | 5.2 | 0.00 | 0.00 | 0.00 | 80 | 1011.2 |
| 20260503042955 | 47 | 187 | 5.2 | 7.0 | 0.00 | 0.00 | 0.00 | 74 | 1011.2 |
| 20260503042455 | 47 | 177 | 4.3 | 6.1 | 0.00 | 0.00 | 0.00 | 77 | 1011.2 |
| 20260503041955 | 48 | 188 | 4.3 | 7.0 | 0.00 | 0.00 | 0.00 | 73 | 1011.2 |
| 20260503041455 | 48 | 169 | 4.3 | 7.0 | 0.00 | 0.00 | 0.00 | 75 | 1011.2 |
| 20260503040955 | 48 | 187 | 5.2 | 6.1 | 0.00 | 0.00 | 0.00 | 73 | 1011.2 |
| 20260503040455 | 47 | 194 | 4.3 | 6.1 | 0.00 | 0.00 | 0.00 | 73 | 1011.2 |
| 20260503035955 | 47 | 187 | 6.1 | 6.1 | 0.00 | 0.00 | 0.00 | 73 | 1011.2 |
| 20260503035455 | 47 | 189 | 5.2 | 6.1 | 0.00 | 0.00 | 0.00 | 74 | 1011.2 |
| 20260503034955 | 46 | 166 | 5.2 | 6.1 | 0.00 | 0.00 | 0.00 | 75 | 1011.5 |
| 20260503034456 | 46 | 176 | 5.2 | 6.1 | 0.00 | 0.00 | 0.00 | 77 | 1011.5 |
| 20260503033955 | 46 | 187 | 5.2 | 6.1 | 0.00 | 0.00 | 0.00 | 81 | 1011.5 |
| 20260503033455 | 47 | 173 | 5.2 | 6.1 | 0.00 | 0.00 | 0.00 | 81 | 1011.5 |
| 20260503032956 | 47 | 175 | 5.2 | 6.1 | 0.00 | 0.00 | 0.00 | 81 | 1011.5 |
| 20260503032455 | 46 | 189 | 5.2 | 6.1 | 0.00 | 0.00 | 0.00 | 81 | 1011.9 |
| 20260503031956 | 47 | 174 | 2.6 | 4.3 | 0.00 | 0.00 | 0.00 | 80 | 1011.9 |
| 20260503031455 | 47 | 174 | 3.5 | 6.1 | 0.00 | 0.00 | 0.00 | 78 | 1011.9 |
| 20260503030955 | 47 | 188 | 5.2 | 6.1 | 0.00 | 0.00 | 0.00 | 75 | 1011.9 |
| 20260503030455 | 47 | 189 | 3.5 | 6.1 | 0.00 | 0.00 | 0.00 | 78 | 1011.9 |
| 20260503025955 | 48 | 176 | 5.2 | 6.1 | 0.00 | 0.00 | 0.00 | 79 | 1012.2 |
| 20260503025455 | 48 | 175 | 5.2 | 5.2 | 0.00 | 0.00 | 0.00 | 77 | 1012.2 |
| 20260503024956 | 48 | 172 | 5.2 | 5.2 | 0.00 | 0.00 | 0.00 | 78 | 1012.2 |
| 20260503024455 | 48 | 174 | 5.2 | 5.2 | 0.00 | 0.00 | 0.00 | 77 | 1012.2 |
| 20260503023955 | 48 | 170 | 3.5 | 4.3 | 0.00 | 0.00 | 0.00 | 80 | 1012.2 |
| 20260503023455 | 48 | 177 | 4.3 | 5.2 | 0.00 | 0.00 | 0.00 | 80 | 1012.2 |
| 20260503022955 | 49 | 182 | 3.5 | 5.2 | 0.00 | 0.00 | 0.00 | 80 | 1012.2 |
| 20260503022455 | 49 | 201 | 4.3 | 5.2 | 0.00 | 0.00 | 0.00 | 77 | 1012.2 |
| 20260503021955 | 49 | 183 | 4.3 | 5.2 | 0.00 | 0.00 | 0.00 | 78 | 1012.2 |
| 20260503021455 | 48 | 186 | 3.5 | 4.3 | 0.00 | 0.00 | 0.00 | 76 | 1012.2 |
| 20260503020955 | 49 | 211 | 3.5 | 3.5 | 0.00 | 0.00 | 0.00 | 79 | 1012.2 |
| 20260503020455 | 49 | 182 | 2.6 | 4.3 | 0.00 | 0.00 | 0.00 | 79 | 1012.5 |
| 20260503015955 | 49 | 180 | 3.5 | 4.3 | 0.00 | 0.00 | 0.00 | 75 | 1012.5 |
| 20260503015455 | 50 | 193 | 3.5 | 5.2 | 0.00 | 0.00 | 0.00 | 77 | 1012.5 |
| 20260503014955 | 50 | 187 | 4.3 | 5.2 | 0.00 | 0.00 | 0.00 | 74 | 1012.5 |
| 20260503014455 | 50 | 185 | 3.5 | 4.3 | 0.00 | 0.00 | 0.00 | 76 | 1012.5 |
| 20260503013956 | 49 | 178 | 3.5 | 4.3 | 0.00 | 0.00 | 0.00 | 76 | 1012.2 |
| 20260503013455 | 48 | 198 | 4.3 | 5.2 | 0.00 | 0.00 | 0.00 | 75 | 1012.5 |
| 20260503012955 | 49 | 162 | 2.6 | 2.6 | 0.00 | 0.00 | 0.00 | 79 | 1012.5 |
| 20260503012455 | 49 | 173 | 2.6 | 3.5 | 0.00 | 0.00 | 0.00 | 76 | 1012.5 |
| 20260503011956 | 50 | 171 | 3.5 | 5.2 | 0.00 | 0.00 | 0.00 | 74 | 1012.5 |
| 20260503011456 | 50 | 177 | 4.3 | 6.1 | 0.00 | 0.00 | 0.00 | 70 | 1012.5 |
| 20260503010955 | 50 | 181 | 5.2 | 6.1 | 0.00 | 0.00 | 0.00 | 66 | 1012.5 |
| 20260503010456 | 51 | 210 | 4.3 | 6.1 | 0.00 | 0.00 | 0.00 | 67 | 1012.5 |
| 20260503005955 | 51 | 209 | 5.2 | 7.0 | 0.00 | 0.00 | 0.00 | 68 | 1012.5 |
| 20260503005455 | 51 | 226 | 5.2 | 7.0 | 0.00 | 0.00 | 0.00 | 64 | 1012.5 |
| 20260503004956 | 52 | 231 | 6.1 | 7.0 | 0.00 | 0.00 | 0.00 | 64 | 1012.9 |
| 20260503004455 | 52 | 224 | 6.1 | 7.0 | 0.00 | 0.00 | 0.00 | 64 | 1012.9 |
| 20260503003956 | 52 | 235 | 7.0 | 7.8 | 0.00 | 0.00 | 0.00 | 62 | 1012.9 |
| 20260503003456 | 53 | 228 | 7.0 | 7.8 | 0.00 | 0.00 | 0.00 | 61 | 1012.9 |
| 20260503002955 | 53 | 235 | 7.8 | 8.7 | 0.00 | 0.00 | 0.00 | 59 | 1012.9 |
| 20260503002455 | 53 | 214 | 7.8 | 8.7 | 0.00 | 0.00 | 0.00 | 59 | 1012.9 |
| 20260503001955 | 54 | 226 | 7.0 | 9.6 | 0.00 | 0.00 | 0.00 | 57 | 1012.9 |
| 20260503001456 | 54 | 232 | 8.7 | 12.2 | 0.00 | 0.00 | 0.00 | 57 | 1012.9 |
| 20260503000955 | 55 | 241 | 11.3 | 13.0 | 0.00 | 0.00 | 0.00 | 55 | 1012.9 |
| 20260503000455 | 56 | 241 | 8.7 | 12.2 | 0.00 | 0.00 | 0.00 | 58 | 1013.2 |
| 20260502235955 | 56 | 238 | 9.6 | 11.3 | 0.00 | 0.00 | 0.00 | 50 | 1013.2 |
| 20260502235455 | 56 | 229 | 9.6 | 12.2 | 0.00 | 0.00 | 0.00 | 50 | 1013.2 |
| 20260502234958 | 56 | 241 | 9.6 | 13.9 | 0.00 | 0.00 | 0.00 | 55 | 1013.2 |
| 20260502234455 | 56 | 219 | 9.6 | 13.0 | 0.00 | 0.00 | 0.00 | 54 | 1013.2 |
| 20260502233956 | 56 | 232 | 8.7 | 13.9 | 0.00 | 0.00 | 0.00 | 53 | 1013.2 |
| 20260502233455 | 56 | 248 | 8.7 | 13.9 | 0.00 | 0.00 | 0.00 | 55 | 1013.2 |
| 20260502232956 | 56 | 245 | 9.6 | 13.0 | 0.00 | 0.00 | 0.00 | 54 | 1013.2 |
| 20260502232456 | 55 | 249 | 9.6 | 13.0 | 0.00 | 0.00 | 0.00 | 53 | 1013.2 |
| 20260502231955 | 56 | 235 | 10.4 | 13.9 | 0.00 | 0.00 | 0.00 | 52 | 1013.2 |
| 20260502231455 | 56 | 218 | 9.6 | 15.6 | 0.00 | 0.00 | 0.00 | 53 | 1013.2 |
| 20260502230955 | 56 | 236 | 13.0 | 15.6 | 0.00 | 0.00 | 0.00 | 51 | 1013.2 |
| 20260502230455 | 57 | 255 | 9.6 | 15.6 | 0.00 | 0.00 | 0.00 | 54 | 1013.2 |
| 20260502225955 | 57 | 246 | 7.0 | 12.2 | 0.00 | 0.00 | 0.00 | 52 | 1013.2 |
| 20260502225456 | 57 | 252 | 9.6 | 15.6 | 0.00 | 0.00 | 0.00 | 52 | 1013.2 |
| 20260502224955 | 58 | 243 | 11.3 | 15.6 | 0.00 | 0.00 | 0.00 | 47 | 1013.2 |
| 20260502224455 | 58 | 232 | 11.3 | 13.9 | 0.00 | 0.00 | 0.00 | 47 | 1013.2 |
| 20260502223956 | 57 | 250 | 9.6 | 13.9 | 0.00 | 0.00 | 0.00 | 49 | 1013.2 |
| 20260502223455 | 57 | 213 | 13.9 | 14.8 | 0.00 | 0.00 | 0.00 | 49 | 1013.2 |
| 20260502222955 | 58 | 233 | 13.0 | 15.6 | 0.00 | 0.00 | 0.00 | 46 | 1013.2 |
| 20260502222455 | 58 | 233 | 10.4 | 17.4 | 0.00 | 0.00 | 0.00 | 49 | 1013.2 |
| 20260502221955 | 58 | 229 | 9.6 | 14.8 | 0.00 | 0.00 | 0.00 | 50 | 1013.2 |
| 20260502221455 | 58 | 236 | 8.7 | 13.9 | 0.00 | 0.00 | 0.00 | 51 | 1013.2 |
| 20260502220956 | 58 | 275 | 9.6 | 13.0 | 0.00 | 0.00 | 0.00 | 50 | 1013.2 |
| 20260502220456 | 57 | 219 | 10.4 | 15.6 | 0.00 | 0.00 | 0.00 | 44 | 1013.2 |
| 20260502215955 | 58 | 215 | 12.2 | 14.8 | 0.00 | 0.00 | 0.00 | 47 | 1013.5 |
| 20260502215455 | 58 | 225 | 10.4 | 15.6 | 0.00 | 0.00 | 0.00 | 46 | 1013.5 |
| 20260502214956 | 58 | 225 | 13.9 | 15.6 | 0.00 | 0.00 | 0.00 | 50 | 1013.5 |
| 20260502214455 | 58 | 246 | 10.4 | 15.6 | 0.00 | 0.00 | 0.00 | 46 | 1013.5 |
| 20260502213956 | 58 | 218 | 12.2 | 15.6 | 0.00 | 0.00 | 0.00 | 46 | 1013.5 |
| 20260502212956 | 58 | 222 | 13.9 | 15.6 | 0.00 | 0.00 | 0.00 | 47 | 1013.5 |
| 20260502212456 | 58 | 251 | 13.9 | 15.6 | 0.00 | 0.00 | 0.00 | 47 | 1013.9 |
| 20260502211955 | 59 | 239 | 9.6 | 11.3 | 0.00 | 0.00 | 0.00 | 48 | 1013.9 |
| 20260502211455 | 59 | 236 | 7.8 | 9.6 | 0.00 | 0.00 | 0.00 | 42 | 1013.5 |
| 20260502210955 | 58 | 261 | 7.8 | 13.0 | 0.00 | 0.00 | 0.00 | 48 | 1013.9 |
| 20260502210455 | 58 | 240 | 9.6 | 15.6 | 0.00 | 0.00 | 0.00 | 44 | 1013.9 |
| 20260502205956 | 58 | 252 | 13.9 | 15.6 | 0.00 | 0.00 | 0.00 | 45 | 1013.9 |
| 20260502205456 | 58 | 241 | 11.3 | 15.6 | 0.00 | 0.00 | 0.00 | 47 | 1013.9 |
| 20260502204956 | 58 | 252 | 12.2 | 15.6 | 0.00 | 0.00 | 0.00 | 44 | 1014.2 |
| 20260502204455 | 57 | 262 | 11.3 | 14.8 | 0.00 | 0.00 | 0.00 | 44 | 1014.2 |
| 20260502203955 | 59 | 244 | 11.3 | 17.4 | 0.00 | 0.00 | 0.00 | 47 | 1014.2 |
| 20260502203455 | 60 | 253 | 8.7 | 11.3 | 0.00 | 0.00 | 0.00 | 44 | 1014.2 |
| 20260502202955 | 58 | 254 | 9.6 | 17.4 | 0.00 | 0.00 | 0.00 | 45 | 1014.2 |
| 20260502202456 | 59 | 257 | 14.8 | 17.4 | 0.00 | 0.00 | 0.00 | 46 | 1014.6 |
| 20260502201955 | 58 | 251 | 10.4 | 13.0 | 0.00 | 0.00 | 0.00 | 47 | 1014.6 |